Flag for United Kingdom Weather past 2 weeks in Greenwich Borough, England, United Kingdom

Now
66 °F

Haze.


Feels Like: 66 °F
Forecast: 60 / 73 °F
Wind: 8 mph from East

Location: Biggin Hill Airport

Current Time: Sep 16, 2014 at 6:54:59 PM

Latest Report: Sep 16, 2014 at 6:20 PM


Visibility: 3 mi

Pressure: 29.95 "Hg

Humidity: 73%

Dew point: 57 °F

Location of Greenwich BoroughLocation

Historic Weather in Greenwich Borough — Graph

°F

Greenwich Borough temperature yesterday

Maximum temperature yesterday: 68 °F (at 2:20 PM)
Minimum temperature yesterday: 54 °F (at 7:20 AM)
Average temperature yesterday: 62 °F

Past Weeks' High & Low Weather Summary

 TemperatureHumidityPressure
High72 °F (Sep 16, 3:20 PM)100% (Sep 3, 6:50 AM)30.33 "Hg (Sep 3, 6:50 AM)
Low52 °F (Sep 8, 6:20 AM)38% (Sep 8, 4:20 PM)29.95 "Hg (Sep 6, 1:20 PM)
Average62 °F72%30.13 "Hg
* Reported Sep 1 5:20 PM — Sep 16 5:20 PM, Greenwich Borough, Weather by CustomWeather, © 2014

Note: Actual official high and low records may vary slightly from our data, if they occured in-between our weather recording intervals... More about our weather records

Advertising

Greenwich Borough weather history for previous 24 hours

 ConditionsComfort  
Time TempWeatherWind HumidityBarometerVisibility
5:20 PM
Sep 16
70 °FHaze.8 mph60%29.95 "Hg3 mi
4:50 PM70 °FPassing clouds.8 mph64%29.95 "Hg4 mi
4:20 PM70 °FPassing clouds.9 mph64%29.95 "Hg5 mi
3:50 PM70 °FPassing clouds.8 mph64%29.95 "Hg5 mi
3:20 PM72 °FPassing clouds.9 mph61%29.95 "Hg5 mi
2:50 PM70 °FPassing clouds.9 mph64%29.95 "Hg5 mi
2:20 PM70 °FPassing clouds.9 mph64%29.98 "Hg5 mi
1:50 PM70 °FScattered clouds.9 mph64%29.98 "Hg5 mi
1:20 PM70 °FScattered clouds.10 mph69%29.98 "Hg4 mi
12:50 PM70 °FPassing clouds.9 mph64%29.98 "Hg4 mi
12:20 PM70 °FPassing clouds.8 mph64%29.98 "Hg4 mi
11:50 AM68 °FPassing clouds.9 mph69%29.98 "Hg4 mi
11:20 AM66 °FHaze.7 mph78%29.98 "Hg3 mi
10:50 AM66 °FHaze.7 mph78%30.01 "Hg1 mi
10:20 AM63 °FScattered clouds.8 mph94%30.01 "Hg1 mi
9:50 AM61 °FFog.5 mph94%30.01 "Hg1 mi
9:20 AM61 °FFog.7 mph94%30.01 "Hg1 mi
8:50 AM59 °FFog.5 mph94%30.01 "Hg1 mi
8:20 AM59 °FFog.5 mph94%29.98 "Hg1 mi
7:50 AM59 °FFog.3 mph94%29.98 "Hg0 mi
7:20 AM59 °FFog.3 mph94%29.98 "Hg0 mi
9:20 PM
Sep 15
59 °FClear.5 mph82%30.01 "Hg6 mi
8:50 PM59 °FClear.3 mph88%30.01 "Hg10 mi
8:20 PM59 °FClear.3 mph88%30.01 "Hg10 mi
7:50 PM61 °FSunny.5 mph83%30.01 "Hg10 mi
7:20 PM63 °FSunny.3 mph77%30.01 "Hg10 mi
6:50 PM63 °FSunny.3 mph77%30.01 "Hg10 mi
6:20 PM64 °FSunny.5 mph73%30.01 "Hg10 mi
Weather by CustomWeather, © 2014

See weather overviewHow to use our weather pages